Weather History for KGIC - January, 2014

Change the Weather History Date:

Saturday, January 11, 2014

  Actual Average (KLWS) Record (KLWS)
Temperature  
Mean Temperature 40 °F 35 °F  
Max Temperature 46 °F 41 °F 57 °F (1953)
Min Temperature 35 °F 29 °F -11 °F (1963)
Degree Days  
Heating Degree Days 24 30  
Month to date heating degree days 337  
Since 1 July heating degree days 2545  
Cooling Degree Days 0 0  
Month to date cooling degree days 0  
Year to date cooling degree days 0  
Moisture  
Dew Point 32 °F    
Average Humidity 69    
Maximum Humidity 86    
Minimum Humidity 56    
Precipitation  
Precipitation 0.11 in 0.04 in 0.63 in (1918)
Month to date precipitation 0.40  
Year to date precipitation 0.40  
Snow  
Snow 0.00 in 0.10 in 999.00 in (2004)
Month to date snowfall 1.0  
Since 1 July snowfall 6.3  
Snow Depth -    
Sea Level Pressure  
Sea Level Pressure 29.65 in    
Wind  
Wind Speed 20 mph (SW)    
Max Wind Speed 37 mph    
Max Gust Speed 44 mph    
Visibility 9 miles    
Events      
T = Trace of Precipitation, MM = Missing Value Source: NWS Daily Summary

Daily Weather History Graph

Daily Weather History Graph

Search for Another Location

Airport or City:

Trip Planner

Search our weather history database for the weather conditions in past years. The results will help you decide how hot, cold, wet, or windy it might be!

Date:

Astronomy

Jan. 11, 2014 Rise Set
Actual Time 7:24 AM PST 4:21 PM PST
Civil Twilight 6:50 AM PST 4:54 PM PST
Nautical Twilight 6:13 AM PST 5:32 PM PST
Astronomical Twilight 5:37 AM PST 6:08 PM PST
Moon 1:10 PM PST (1/11) 3:30 AM PST (1/11)
Length of Visible Light 10h 04m
Length of Day
8h 56m
Waxing Gibbous, 84% of the Moon is Illuminated
Jan 11
Waxing Gibbous
Jan 15
Full
Jan 23
Last Quarter
Jan 30
New
Feb 6
First Quarter

Hourly Weather History & Observations

Time (PST) Temp. Windchill Dew Point Humidity Pressure Visibility Wind Dir Wind Speed Gust Speed Precip Events Conditions
12:15 AM 40.6 °F 32.3 °F 33.3 °F 75% 29.91 in 10.0 mi South 16.1 mph 23.0 mph N/A   Overcast
12:35 AM 40.5 °F 31.5 °F 33.1 °F 75% 29.89 in 10.0 mi SE 18.4 mph 26.5 mph N/A   Overcast
12:55 AM 40.6 °F 30.2 °F 32.9 °F 74% 29.88 in 10.0 mi South 25.3 mph 38.0 mph N/A   Overcast
1:15 AM 40.1 °F 29.9 °F 33.1 °F 76% 29.87 in 7.0 mi SSW 23.0 mph 36.8 mph N/A   Overcast
1:35 AM 40.3 °F 29.7 °F 33.8 °F 78% 29.86 in 7.0 mi South 25.3 mph 36.8 mph 0.01 in   Overcast
1:55 AM 40.8 °F 30.2 °F 33.8 °F 76% 29.84 in 10.0 mi South 26.5 mph 32.2 mph 0.01 in   Overcast
2:15 AM 42.3 °F 33.8 °F 33.4 °F 71% 29.84 in 10.0 mi South 18.4 mph 27.6 mph N/A   Mostly Cloudy
2:35 AM 42.6 °F 39.0 °F 32.5 °F 68% 29.82 in 10.0 mi ESE 5.8 mph 27.6 mph N/A   Mostly Cloudy
2:55 AM 42.8 °F 41.1 °F 32.4 °F 67% 29.82 in 10.0 mi North 3.5 mph - N/A   Overcast
3:15 AM 42.3 °F 36.3 °F 32.5 °F 68% 29.80 in 10.0 mi NW 10.4 mph - N/A   Overcast
3:35 AM 41.4 °F 37.6 °F 32.5 °F 71% 29.79 in 10.0 mi SSE 5.8 mph 18.4 mph N/A   Scattered Clouds
3:55 AM 43.2 °F 35.6 °F 32.5 °F 66% 29.76 in 10.0 mi SSE 16.1 mph 23.0 mph N/A   Scattered Clouds
4:15 AM 44.8 °F 35.0 °F 32.7 °F 63% 29.73 in 10.0 mi South 29.9 mph 41.4 mph N/A   Clear
4:35 AM 45.0 °F 35.2 °F 32.4 °F 61% 29.71 in 10.0 mi SSW 29.9 mph 42.6 mph N/A   Clear
4:55 AM 45.3 °F 36.1 °F 32.5 °F 61% 29.71 in 10.0 mi SSW 27.6 mph 39.1 mph N/A   Scattered Clouds
5:15 AM 45.0 °F 36.2 °F 33.3 °F 64% 29.70 in 10.0 mi SSW 24.2 mph 41.4 mph N/A   Mostly Cloudy
5:35 AM 44.1 °F 35.4 °F 33.8 °F 67% 29.70 in 10.0 mi SSW 21.9 mph 33.4 mph N/A   Mostly Cloudy
5:55 AM 43.0 °F 35.4 °F 34.3 °F 72% 29.68 in 10.0 mi South 16.1 mph 25.3 mph N/A   Mostly Cloudy
6:15 AM 43.5 °F 37.5 °F 34.2 °F 70% 29.66 in 10.0 mi South 11.5 mph 21.9 mph N/A   Overcast
6:35 AM 44.2 °F 36.4 °F 33.8 °F 67% 29.63 in 10.0 mi South 18.4 mph 24.2 mph N/A   Mostly Cloudy
6:55 AM 45.5 °F 40.3 °F 34.0 °F 64% 29.63 in 10.0 mi SW 10.4 mph 32.2 mph N/A   Overcast
7:15 AM 46.0 °F 37.6 °F 34.3 °F 64% 29.61 in 10.0 mi SSW 24.2 mph 32.2 mph N/A   Overcast
7:35 AM 45.9 °F 38.8 °F 35.2 °F 66% 29.62 in 7.0 mi SW 17.3 mph 28.8 mph N/A   Overcast
7:55 AM 44.8 °F 36.6 °F 36.0 °F 71% 29.61 in 7.0 mi SSW 20.7 mph 32.2 mph 0.01 in   Overcast
8:15 AM 45.9 °F 36.6 °F 35.8 °F 68% 29.59 in 10.0 mi SSW 28.8 mph 36.8 mph N/A   Overcast
8:35 AM 46.6 °F - 35.8 °F 66% 29.60 in 10.0 mi SSW 26.5 mph 36.8 mph N/A   Overcast
8:55 AM 46.0 °F 37.4 °F 36.3 °F 69% 29.60 in 5.0 mi SSW 25.3 mph 38.0 mph N/A   Overcast
9:15 AM 45.7 °F 37.6 °F 36.7 °F 71% 29.61 in 5.0 mi SW 21.9 mph 36.8 mph 0.01 in   Overcast
9:35 AM 45.5 °F 36.9 °F 36.7 °F 71% 29.61 in 5.0 mi SSW 24.2 mph 39.1 mph 0.01 in   Overcast
9:55 AM 45.3 °F 36.3 °F 37.0 °F 73% 29.60 in 7.0 mi SSW 26.5 mph 34.5 mph 0.01 in   Overcast
10:15 AM 45.5 °F 36.5 °F 36.9 °F 72% 29.58 in 10.0 mi SSW 26.5 mph 36.8 mph N/A   Mostly Cloudy
10:35 AM 46.0 °F 37.0 °F 36.0 °F 68% 29.57 in 10.0 mi SSW 27.6 mph 43.7 mph N/A   Scattered Clouds
10:55 AM 46.4 °F 37.7 °F 35.6 °F 66% 29.54 in 10.0 mi SSW 26.5 mph 35.7 mph N/A   Mostly Cloudy
11:15 AM 46.8 °F - 35.4 °F 65% 29.55 in 10.0 mi SSW 27.6 mph 38.0 mph N/A   Mostly Cloudy
11:35 AM 46.6 °F - 35.4 °F 65% 29.55 in 10.0 mi SSW 28.8 mph 34.5 mph N/A   Mostly Cloudy
11:55 AM 41.5 °F 32.6 °F 34.5 °F 76% 29.62 in 2.5 mi West 19.6 mph 29.9 mph 0.04 in   Overcast
12:15 PM 37.9 °F 27.9 °F 34.0 °F 86% 29.64 in 2.5 mi West 19.6 mph - 0.02 in   Overcast
12:35 PM 37.6 °F 26.6 °F 33.8 °F 86% 29.64 in 3.0 mi West 23.0 mph 29.9 mph 0.04 in   Overcast
12:55 PM 37.4 °F 26.9 °F 33.3 °F 85% 29.62 in 10.0 mi SW 20.7 mph 31.1 mph 0.04 in   Overcast
1:20 PM 38.3 °F 29.0 °F 32.0 °F 78% 29.61 in 10.0 mi SW 17.3 mph - N/A   Overcast
1:35 PM 39.2 °F 30.5 °F 31.5 °F 74% 29.60 in 10.0 mi SSW 16.1 mph 23.0 mph N/A   Overcast
1:55 PM 40.6 °F 33.4 °F 30.9 °F 68% 29.60 in 10.0 mi SSW 12.7 mph 23.0 mph N/A   Overcast
2:15 PM 42.4 °F 34.7 °F 31.1 °F 64% 29.62 in 10.0 mi WSW 16.1 mph 24.2 mph N/A   Scattered Clouds
2:35 PM 42.8 °F 36.6 °F 30.9 °F 63% 29.61 in 10.0 mi West 11.5 mph 21.9 mph N/A   Clear
2:55 PM 43.2 °F 37.9 °F 31.1 °F 62% 29.61 in 10.0 mi WSW 9.2 mph 19.6 mph N/A   Clear
3:15 PM 42.8 °F 35.4 °F 31.6 °F 65% 29.60 in 10.0 mi SW 15.0 mph - N/A   Clear
3:35 PM 41.7 °F 34.8 °F 30.0 °F 63% 29.59 in 10.0 mi SSW 12.7 mph - N/A   Clear
3:55 PM 41.0 °F 33.9 °F 29.3 °F 63% 29.59 in 10.0 mi SW 12.7 mph - N/A   Clear
4:15 PM 40.1 °F 31.3 °F 29.7 °F 66% 29.59 in 10.0 mi SW 17.3 mph 21.9 mph N/A   Clear
4:35 PM 39.2 °F 30.5 °F 30.9 °F 72% 29.59 in 10.0 mi SSW 16.1 mph - N/A   Scattered Clouds
4:55 PM 40.3 °F 30.2 °F 30.7 °F 69% 29.58 in 10.0 mi SW 23.0 mph 28.8 mph N/A   Scattered Clouds
5:15 PM 40.8 °F 32.6 °F 28.4 °F 61% 29.58 in 10.0 mi SW 16.1 mph 21.9 mph N/A   Clear
5:35 PM 39.7 °F 31.5 °F 29.8 °F 68% 29.57 in 10.0 mi WSW 15.0 mph 27.6 mph N/A   Clear
5:55 PM 39.4 °F 31.1 °F 30.0 °F 69% 29.58 in 10.0 mi SW 15.0 mph 20.7 mph N/A   Scattered Clouds
6:15 PM 40.5 °F 30.2 °F 29.3 °F 64% 29.57 in 10.0 mi SSW 24.2 mph 35.7 mph N/A   Scattered Clouds
6:35 PM 40.3 °F 31.9 °F 29.1 °F 64% 29.58 in 10.0 mi SW 16.1 mph - N/A   Mostly Cloudy
6:55 PM 40.3 °F 31.3 °F 28.6 °F 63% 29.59 in 10.0 mi SSW 18.4 mph 26.5 mph N/A   Overcast
7:15 PM 40.3 °F 32.2 °F 27.3 °F 60% 29.58 in 10.0 mi SW 15.0 mph 26.5 mph N/A   Overcast
7:35 PM 40.3 °F 31.0 °F 27.5 °F 60% 29.57 in 10.0 mi SSW 19.6 mph 28.8 mph N/A   Overcast
7:55 PM 40.5 °F 31.2 °F 27.1 °F 59% 29.57 in 10.0 mi SSW 19.6 mph 28.8 mph N/A   Overcast
8:15 PM 40.5 °F 31.8 °F 26.6 °F 58% 29.57 in 10.0 mi SW 17.3 mph 29.9 mph N/A   Overcast
8:35 PM 40.5 °F 30.7 °F 25.9 °F 56% 29.59 in 10.0 mi WSW 21.9 mph 36.8 mph N/A   Overcast
8:55 PM 39.0 °F 29.0 °F 27.5 °F 63% 29.60 in 10.0 mi SW 20.7 mph 31.1 mph N/A   Overcast
9:15 PM 38.5 °F 28.1 °F 28.2 °F 67% 29.61 in 10.0 mi SW 21.9 mph 28.8 mph N/A   Overcast
9:35 PM 37.4 °F 27.2 °F 29.5 °F 73% 29.61 in 10.0 mi SSW 19.6 mph 26.5 mph N/A   Overcast
9:55 PM 37.0 °F 25.9 °F 30.0 °F 76% 29.61 in 10.0 mi SW 23.0 mph 27.6 mph N/A   Overcast
10:15 PM 37.6 °F 24.4 °F 28.8 °F 70% 29.61 in 10.0 mi WSW 34.5 mph 42.6 mph N/A   Overcast
10:35 PM 37.0 °F 25.1 °F 28.9 °F 73% 29.62 in 10.0 mi SW 26.5 mph 33.4 mph N/A   Overcast
10:55 PM 37.0 °F 23.3 °F 28.6 °F 71% 29.62 in 10.0 mi WSW 36.8 mph 42.6 mph N/A   Overcast
11:15 PM 36.0 °F 23.0 °F 29.7 °F 78% 29.62 in 10.0 mi SW 29.9 mph 41.4 mph N/A   Overcast
11:35 PM 35.8 °F 23.4 °F 29.5 °F 78% 29.62 in 10.0 mi SW 26.5 mph 36.8 mph N/A   Overcast
11:55 PM 35.8 °F 22.8 °F 29.1 °F 77% 29.64 in 10.0 mi WSW 29.9 mph 35.7 mph N/A   Overcast